Date String (YYYY-MM-DD hh:mm:ss) UTC,Instrument flags,Ambient pressure (hPa),Sample flow (lpm),Bypass flow (lpm),Sample temperature (°C),Ambient temperature (°C),ASC tube jacket temperature (°C),LED temperature (°C),Box temperature (°C),Sample RH (%),Span deviation,Mass concentration (μg/m³),Mass concentration (μg/m³),Mass concentration (μg/m³)
DateTimeUTC,F1_M11,P_M11,Q1_M11,Q2_M11,T1_M11,T2_M11,T3_M11,T4_M11,T5_M11,U1_M11,ZSPAN_M11,X0_M11,X2_M11,X1_M11
2021-11-02 08:00:00,,0832.8,4.99,0.00,22.9,22.2,00.0,31.9,24.7,21.2,0000.0,0014.61,0007.49,0006.46
2021-11-02 08:01:00,,0832.8,5.00,0.00,22.9,22.2,00.0,31.9,24.7,21.2,0000.0,0015.72,0007.54,0006.48
2021-11-02 08:02:00,,0832.8,5.01,0.00,22.9,22.2,00.0,31.9,24.7,21.2,0000.0,0016.26,0007.59,0006.50
2021-11-02 08:03:00,,0832.8,4.98,0.00,22.9,22.2,00.0,31.9,24.7,21.2,0000.0,0016.24,0007.60,0006.52
2021-11-02 08:04:00,,0832.8,5.01,0.00,22.9,22.2,00.0,31.9,24.7,21.1,0000.0,0015.86,0007.56,0006.52
2021-11-02 08:05:00,,0832.8,5.00,0.00,22.9,22.2,00.0,31.9,24.8,21.1,0000.0,0015.75,0007.49,0006.51
2021-11-02 08:06:00,,0832.8,4.99,0.00,22.9,22.2,00.0,31.9,24.8,21.0,0000.0,0016.26,0007.48,0006.50
2021-11-02 08:07:00,,0832.8,5.01,0.00,22.9,22.2,00.0,31.9,24.8,21.0,0000.0,0017.04,0007.48,0006.49
2021-11-02 08:08:00,,0832.9,4.99,0.00,22.9,22.2,00.0,31.9,24.8,21.0,0000.0,0017.20,0007.43,0006.48
2021-11-02 08:09:00,,0832.9,5.01,0.00,22.9,22.2,00.0,31.9,24.7,21.0,0000.0,0016.96,0007.34,0006.46
2021-11-02 08:10:00,,0832.8,5.01,0.00,22.9,22.2,00.0,31.9,24.8,21.0,0000.0,0016.84,0007.29,0006.45
2021-11-02 08:11:00,,0832.9,4.99,0.00,22.9,22.2,00.0,31.9,24.8,21.0,0000.0,0015.95,0007.26,0006.44
2021-11-02 08:12:00,,0832.9,5.01,0.00,22.9,22.2,00.0,31.9,24.8,21.0,0000.0,0015.27,0007.23,0006.44
2021-11-02 08:13:00,,0832.9,4.99,0.00,22.9,22.2,00.0,31.9,24.8,20.9,0000.0,0014.40,0007.20,0006.43
2021-11-02 08:14:00,,0832.8,5.00,0.00,22.9,22.2,00.0,31.9,24.7,20.9,0000.0,0014.75,0007.20,0006.45
2021-11-02 08:15:00,,0832.8,5.01,0.00,22.9,22.2,00.0,31.9,24.8,20.9,0000.0,0015.32,0007.28,0006.47
2021-11-02 08:16:00,,0832.8,5.00,0.00,22.9,22.2,00.0,31.9,24.8,20.9,0000.0,0015.81,0007.36,0006.52
2021-11-02 08:17:00,,0832.8,4.99,0.00,22.9,22.2,00.0,31.9,24.7,20.9,0000.0,0016.19,0007.43,0006.56
2021-11-02 08:18:00,,0832.9,5.00,0.00,22.9,22.2,00.0,31.9,24.8,20.9,0000.0,0015.57,0007.46,0006.59
2021-11-02 08:19:00,,0832.8,5.01,0.00,22.9,22.2,00.0,31.9,24.8,20.9,0000.0,0015.01,0007.48,0006.64
2021-11-02 08:20:00,,0832.8,4.99,0.00,22.9,22.2,00.0,31.9,24.8,20.8,0000.0,0014.88,0007.54,0006.69
2021-11-02 08:21:00,,0832.8,5.01,0.00,22.9,22.2,00.0,31.9,24.8,20.8,0000.0,0014.73,0007.59,0006.74
2021-11-02 08:22:00,,0832.8,4.99,0.00,22.9,22.2,00.0,31.9,24.8,20.9,0000.0,0014.13,0007.66,0006.79
2021-11-02 08:23:00,,0832.9,5.00,0.00,22.9,22.2,00.0,31.9,24.8,20.8,0000.0,0014.40,0007.75,0006.88
2021-11-02 08:24:00,,0832.9,5.01,0.00,22.9,22.2,00.0,32.0,24.8,20.8,0000.0,0014.11,0007.79,0006.95
2021-11-02 08:25:00,,0833.0,4.99,0.00,22.9,22.2,00.0,32.0,24.8,20.8,0000.0,0013.92,0007.90,0007.03
2021-11-02 08:26:00,,0833.0,5.00,0.00,22.9,22.2,00.0,32.0,24.8,20.8,0000.0,0013.85,0007.99,0007.11
2021-11-02 08:27:00,,0833.0,5.01,0.00,22.9,22.2,00.0,32.0,24.8,20.8,0000.0,0013.89,0008.04,0007.18
2021-11-02 08:28:00,,0833.0,4.99,0.00,22.9,22.2,00.0,32.0,24.8,20.8,0000.0,0012.87,0008.07,0007.23
2021-11-02 08:29:00,,0833.0,5.01,0.00,23.0,22.2,00.0,32.0,24.8,20.8,-000.2,0012.71,0008.10,0007.29
2021-11-02 08:30:00,,0833.0,4.99,0.00,23.0,22.2,00.0,32.0,24.8,20.8,0000.0,0012.97,0008.18,0007.34
2021-11-02 08:31:00,,0833.0,5.01,0.00,23.0,22.2,00.0,32.0,24.8,20.8,0000.0,0012.97,0008.22,0007.36
2021-11-02 08:32:00,,0832.9,5.01,0.00,23.0,22.2,00.0,32.0,24.8,20.8,-000.3,0012.82,0008.28,0007.41
2021-11-02 08:33:00,,0832.8,4.99,0.00,23.0,22.2,00.0,32.0,24.8,20.8,-000.9,0012.69,0008.28,0007.44
2021-11-02 08:34:00,,0832.9,5.00,0.00,23.0,22.2,00.0,32.0,24.8,20.8,-000.4,0012.34,0008.27,0007.46
2021-11-02 08:35:00,,0832.8,5.00,0.00,23.0,22.2,00.0,32.0,24.8,20.9,-000.7,0013.11,0008.30,0007.47
2021-11-02 08:36:00,,0832.9,5.00,0.00,23.0,22.2,00.0,32.0,24.8,20.9,-001.1,0013.72,0008.29,0007.48
2021-11-02 08:37:00,,0832.9,5.00,0.00,23.0,22.2,00.0,32.0,24.8,20.9,-000.8,0013.38,0008.23,0007.45
2021-11-02 08:38:00,,0832.8,5.00,0.00,23.0,22.2,00.0,32.0,24.8,20.8,-000.5,0013.00,0008.24,0007.45
2021-11-02 08:39:00,,0832.8,5.00,0.00,23.0,22.3,00.0,32.0,24.8,20.8,-000.1,0013.24,0008.28,0007.48
2021-11-02 08:40:00,,0833.0,5.01,0.00,23.0,22.3,00.0,32.0,24.8,20.8,0000.1,0014.00,0008.31,0007.51
2021-11-02 08:41:00,,0833.0,4.99,0.00,23.0,22.3,00.0,32.0,24.9,20.8,0000.4,0013.78,0008.33,0007.55
2021-11-02 08:42:00,,0833.0,5.00,0.00,23.0,22.3,00.0,32.0,24.9,20.8,0000.1,0014.30,0008.44,0007.61
2021-11-02 08:43:00,,0832.9,5.00,0.00,23.0,22.3,00.0,32.0,24.9,20.8,0000.6,0014.26,0008.44,0007.64
2021-11-02 08:44:00,,0832.8,5.00,0.00,23.0,22.3,00.0,32.0,24.9,20.7,0000.6,0014.33,0008.49,0007.68
2021-11-02 08:45:00,,0832.8,5.01,0.00,23.0,22.3,00.0,32.0,24.9,20.7,0000.1,0014.47,0008.58,0007.74
2021-11-02 08:46:00,,0832.9,4.99,0.00,23.0,22.3,00.0,32.0,24.9,20.7,0000.4,0014.81,0008.68,0007.81
2021-11-02 08:47:00,,0832.8,5.00,0.00,23.0,22.3,00.0,32.0,24.9,20.7,0000.6,0015.40,0008.77,0007.89
2021-11-02 08:48:00,,0832.8,5.02,0.00,23.1,22.3,00.0,32.0,24.9,20.6,0000.0,0016.10,0008.86,0007.96
2021-11-02 08:49:00,,0832.9,4.99,0.00,23.0,22.3,00.0,32.0,24.9,20.6,0000.0,0017.08,0008.87,0008.00
2021-11-02 08:50:00,,0832.8,5.00,0.00,23.1,22.3,00.0,32.0,24.9,20.6,0000.0,0016.68,0008.88,0008.03
2021-11-02 08:51:00,,0832.8,5.00,0.00,23.1,22.3,00.0,32.0,24.9,20.7,0000.0,0016.39,0008.88,0008.05
2021-11-02 08:52:00,,0832.8,5.00,0.00,23.1,22.3,00.0,32.1,24.9,20.7,0000.0,0016.27,0008.91,0008.06
2021-11-02 08:53:00,,0832.8,4.98,0.00,23.1,22.3,00.0,32.1,24.9,20.7,0000.0,0016.15,0008.91,0008.04
2021-11-02 08:54:00,,0832.7,5.01,0.00,23.1,22.3,00.0,32.1,24.9,20.7,0000.0,0016.10,0008.92,0008.04
2021-11-02 08:55:00,,0832.7,5.00,0.00,23.1,22.3,00.0,32.1,24.9,20.7,0000.0,0015.94,0008.87,0008.02
2021-11-02 08:56:00,,0832.8,5.00,0.00,23.1,22.3,00.0,32.1,24.9,20.7,0000.0,0015.88,0008.82,0007.98
2021-11-02 08:57:00,,0832.8,4.99,0.00,23.1,22.3,00.0,32.1,24.9,20.7,-000.3,0015.37,0008.78,0007.93
2021-11-02 08:58:00,,0832.7,5.00,0.00,23.1,22.3,00.0,32.1,24.9,20.7,-001.0,0013.88,0008.73,0007.88
2021-11-02 08:59:00,,0832.7,5.01,0.00,23.1,22.3,00.0,32.1,24.9,20.7,-000.8,0013.45,0008.68,0007.85
